Regional Weather Roundup
Issued by NWS Jackson, KY

Home | Current Version | Previous Version | Graphics & Text | Print | Product List | Glossary On
Versions: 1 2 3 4 5 6 7 8 9 10 11 12 13 14 15 16 17 18 19 20 21 22 23 24 25 26 27 28 29 30 31 32 33 34 35 36 37 38 39 40 41 42 43 44 45 46 47 48 49 50
000
ASUS43 KJKL 271710
RWRJKL

EAST KENTUCKY HOURLY WEATHER ROUNDUP
NATIONAL WEATHER SERVICE JACKSON KY
100 PM EDT FRI MAY 27 2016

NOTE: "FAIR" INDICATES FEW OR NO CLOUDS BELOW 12,000 FEET WITH
NO SIGNIFICANT WEATHER AND/OR OBSTRUCTIONS TO VISIBILITY.

* THESE REPORTS ARE NOT UNDER NWS QUALITY CONTROL AND MAY NOT
  REPORT WEATHER SUCH AS PRECIPITATION AND FOG.

KYZ079-080-083-085-087-088-110-112-115-119-120-271800
...EASTERN KENTUCKY...

CITY           SKY/WX    TMP DP  RH WIND       PRES   REMARKS
JACKSON        MOSUNNY   82  65  56 VRB3      30.11S
LONDON         MOSUNNY   82  63  52 SW8       30.11S
SOMERSET*      MOSUNNY   79  63  57 CALM      30.10F
MONTICELLO*    SUNNY     84  67  56 W14G20    30.10F
WILLIAMSBURG*  MOSUNNY   81  64  57 W3        30.11F
MIDDLESBORO*   MOSUNNY   82  66  57 S6        30.12S
HARLAN APT*      N/A     79  63  57 CALM      30.13F
HAZARD APT*    PTSUNNY   84  66  54 W6        30.11
BLACK MTN*       N/A    N/A N/A N/A S8          N/A
PIKE CO APT*     N/A     82  65  55 S3        30.12S
BIG SANDY APT* MOSUNNY   84  66  55 CALM      30.11S
MOREHEAD APT*  SUNNY     82  66  57 SW10G17   30.10F
ASHLAND*       SUNNY     84  70  61 S5        30.04F
$$

KYZ035-036-041-042-044-050-067-078-099-271800
...CENTRAL KENTUCKY...

CITY           SKY/WX    TMP DP  RH WIND       PRES   REMARKS
MT STERLING*   SUNNY     82  66  57 W9        30.09F
FLEMING/MASON* SUNNY    N/A N/A N/A S7        30.08S
DANVILLE*      SUNNY     82  64  54 S9        30.09F
RICHMOND*      SUNNY     82  64  54 SW8       30.08F
LEXINGTON      SUNNY     83  65  54 SW14      30.07F
FRANKFORT      SUNNY     83  65  54 S14       30.05S
LOUISVILLE     PTSUNNY   84  64  50 S15       30.02F
LEBANON*         N/A     82  66  57 S10       30.07F
GLASGOW*       PTSUNNY   82  66  58 S9        30.06S
BOWLING GREEN  CLOUDY    83  65  54 SW12      30.04F
$$

KYZ091>093-OHZ055-061-077-WVZ005-015-034-035-042-271800
...SOUTHERN OHIO/WEST VIRGINIA...

CITY           SKY/WX    TMP DP  RH WIND       PRES   REMARKS
COVINGTON      MOSUNNY   82  67  60 VRB7      30.04F
COLUMBUS       MOSUNNY   81  63  54 S8        30.04S
DAYTON         MOSUNNY   82  63  52 S9        30.05R
WILMINGTON     SUNNY     82  65  56 W12       30.05S
HUNTINGTON       N/A     83  69  62 CALM      30.07F
CHARLESTON       N/A     84  63  49 VRB6      30.08F
PINEVILLE*       N/A     84  57  39 MISG      30.18F
BECKLEY          N/A     79  58  48 VRB3      30.17F
BLUEFIELD      CLOUDY    75  57  53 VRB3      30.20F
LOGAN CO APT*  PTSUNNY   82  64  54 CALM      30.12F
$$

VAZ002-007-008-TNZ017-027-036-066-071-271800
...SOUTHWEST VIRGINIA/EAST TENNESSEE...

CITY           SKY/WX    TMP DP  RH WIND       PRES   REMARKS
WISE*          CLOUDY    77  55  47 CALM      30.19F
JONESVILLE*      N/A     82  64  54 SE5       30.14F
ABINGDON*      CLOUDY    82  60  47 CALM      30.16F
BRISTOL        MOSUNNY   82  63  52 W6        30.13F
SEVIERVILLE*   SUNNY     81  64  57 E3        30.10F
KNOXVILLE      PTSUNNY   84  65  52 W7        30.09F
OAK RIDGE      MOSUNNY   82  64  54 S6        30.12S
CROSSVILLE     CLOUDY    79  63  57 VRB6      30.14F
NASHVILLE      PTSUNNY   86  61  42 SW14G23   30.04F
$$

...KEY TO REMARKS...
VSB - VISIBILITY IN MILES
WCI - WIND CHILL INDEX
HX  - HEAT INDEX

$$



USA.gov is the U.S. government's official web portal to all federal, state and local government web resources and services.